Location: *
(47.8307°S, 178.3954°E)
Time: 06:33:09
(UTC+00:00)

SeaSat 1 - Pass Details

Date: 12 August 2024
Orbit: 739 x 743 km, 108.0° (Epoch: 18 September)

Event Time Altitude Azimuth Distance (km) Brightness Sun altitude
Rises 17:44:50 0° 160° (SSE) 3,219 5.9 -15.2°
Reaches altitude 10° 17:47:41 10° 177° (S) 2,289 4.9 -14.7°
Maximum altitude 17:51:07 19° 221° (SW) 1,730 3.9 -14.2°
Enters shadow 17:52:15 18° 239° (WSW) 1,796 3.9 -14.0°
